Погода Добеле

Погода Добеле : погода сейчас, прогноз погоды и архив. Всё, что Вы хотите узнать о погоде Добеле!

Поиск расширенной информации на нашем сайте:

Другие новости

Новости СМИ2

Главная страница сайта

Новости сайта

03.07.2017

Напоминаем, что на нашем специализированном сайте Метеоцентр.Азия вы можете получить высокодетализированные автоматические прогнозы погоды по пунктам России, СНГ и мира в авиационном формате (включающие направление и скорость ветра, видимость, явления погоды, количество и форму облачности, нижнюю и верхнюю границу облачности).


Погода Добеле - сегодня

Время (UTC), дата Ветер
(°,м/с) 
Видим.   Явления Облачность Т
(°С)
Тd
(°С)
f(%) Тe
(°С)
Pmin
(гПа)
dP
(гПа)
Po
(мм)
O2
(г/м3)
Тmin Tmax R s Состояние
почвы
09 01.09.18 200 (Ю) н/о    н/о 
+18.8 +14.6 77 +27  1023.3  1.2  764  284           
12 01.09.18 220 (ЮЗ) н/о    н/о 
+21.6 +13.4 60 +27  1023.9  0.6  764  283           
15 01.09.18 240 (ЮЗ) н/о    н/о 
+21.1 +13.7 63 +27  1024.2  0.3  764  282           
18 01.09.18 260 (З) н/о    н/о 
+17.8 +13.6 76 +25  1025.2  0.9  765  286    +22.8       
21 01.09.18 230 (ЮЗ) н/о    н/о 
+14.6 +13.4 93 +22  1026.2  766  290           
00 02.09.18 270 (З) н/о    н/о 
+12.5 +12.3 99 +18  1026.9  0.6  766  293           
03 02.09.18 240 (ЮЗ) н/о    н/о 
+11.5 +11.3 99 +16  1027.4  0.5  766  293           
06 02.09.18 тихо ()   н/о    н/о 
+14.1 +14 99 +21  1028.1  0.8  767  290  +10.2         
09 02.09.18 010 (С) н/о    н/о 
+20.3 +13.4 65 +26  1028.5  0.5  767  284           
12 02.09.18 050 (СВ) н/о    н/о 
+21.1 +12.2 57 +25  1028.2  -0.3  767  285           
15 02.09.18 020 (С) н/о    н/о 
+20.3 +13.4 65 +26  1028  -0.2  767  284           
18 02.09.18 020 (С) н/о    н/о 
+16.6 +13.6 82 +23  1028.3  0.2  767  288    +22       
21 02.09.18 360 (С) н/о    н/о 
+14.6 +14.2 97 +22  1028.5  0.2  767  290           
00 03.09.18 280 (З) н/о    н/о 
+13 +12.8 99 +18  1028.1  -0.5  767  293           
03 03.09.18 310 (СЗ) н/о    н/о 
+12.8 +12.7 99 +18  1027.3  -0.8  766  292           
06 03.09.18 060 (СВ) н/о    н/о 
+16 +15.9 99 +27  1026.9  -0.3  766  287  +12         
09 03.09.18 090 (В) н/о    н/о 
+21 +14.6 67 +29  1025.8  -1  765  283           
12 03.09.18 340 (С) н/о    н/о 
+22.2 +13.2 57 +27  1023.9  -1.9  764  282           
15 03.09.18 040 (СВ) н/о    н/о 
+21.9 +13.4 58 +28  1022.4  -1.5  763  281           
18 03.09.18 010 (С) н/о    н/о 
+17.3 +15.6 90 +27  1021.8  -0.6  762  285    +23.4       
21 03.09.18 360 (С) н/о    н/о 
+17.3 +16.3 94 +29  1020.6  -1.2  761  284           
00 04.09.18 030 (СВ) н/о    н/о 
+16.8 +14 84 +25  1019  -1.6  760  286           
03 04.09.18 350 (С) н/о    н/о 
+14.9 +13.5 91 +22  1018.3  -0.8  760  287           
06 04.09.18 030 (СВ) н/о    н/о 
+16.9 +14.1 84 +24  1017.4  -0.8  759  284  +14.2         
09 04.09.18 //0 (С) //  н/о    н/о 
    302           
Время (UTC), дата Ветер
(°,м/с) 
Видим.   Явления Облачность Т
(°С)
Тd
(°С)
f(%) Тe
(°С)
Pmin
(гПа)
dP
(гПа)
Po
(мм)
O2
(г/м3)
Тmin Tmax R s Состояние
почвы

Для получения пояснительной информации подведите курсор к названию столбца.

ПОГОДА Добеле - архив

Всё, что Вы хотите узнать о погоде Добеле - удобно и подробно!

Выберите нужную дату (начиная с 1 января 2015* года) и нажмите кнопку "Найти".
Будут отображены архивные сводки погоды по пункту Добеле, начиная с указанной даты.


Отображать данные в формате CSV (для использования в таблицах Excel)


Внимание! Наш архив погоды предназначен исключительно для личного некоммерческого использования в познавательных целях. Если Вам необходимы официальные справки о состоянии погоды (для производственных, юридических, коммерческих и т.п. целей), обращайтесь в органы Росгидромета.

*Примечание: данная дата относится к архиву по метеостанциям СССР (Россия, СНГ, Балтия).
Архив по метеостанциям Зарубежной Европы и Азии (кроме Китая) хранится 10 дней, по другим регионам земного шара (Китай, Африка, Америка, Австралия, Океания) - 1 день.

Добеле - район местоположения метеостанции


Название, широта, долгота, высота метеостанции:
Добеле 56.6°ш. 23.3°д. 44 м над ур. моря [Латвия]

Дополнительная информация

В oтличие oт бoльшинства пoгoдных сайтoв мы публикуем пoдрoбную метеoинфoрмацию в детальнoм прoфессиoнальнoм фoрмате.

Характеристики температуры и влажнoсти вoздуха измеряются на высoте 2 м в тени вдали oт зданий и деревьев.
Скoрoсть ветра измеряется на высoте 10 м (на урoвне рoста челoвека скoрoсть ветра ниже в 1.5-2 раза). Если метеoстанция нахoдится в гoрoде или в лесу, тo скoрoсть ветра занижена на 2-4 м/с пo сравнению с oткрытым местoм. Скoрoсть ветра над акватoриями крупных рек и oзёр, а также на вершинах хoлмoв на 2-5 м/с выше, чем в oбычных услoвиях.
Атмoсфернoе давление в разных тoчках местнoсти мoжет значительнo oтличаться oт давления на метеoстанции, в зависимoсти oт услoвий рельефа (при пoдъёме на 10 м давление пoнижается примернo на 1 мм рт.ст.).